• In Latvia
  • List of Countries
  • For 7 days
  • Water Temperature
  • Satellite Maps
  • Weather Map
  • Weather Widgets
  • user-avatar
    Login

    Hourly Weather Mingachevir

    Today, 23 November, Thursday

    Time Temperature Precipitation Wind Pressure Humidity
    00:00 +9°C° 0.3 mm 3 mps 750 mmHg 59%
    01:00 +9°C° 0.1 mm 3 mps 750 mmHg 59%
    02:00 +9°C° 0.1 mm 3 mps 750 mmHg 60%
    03:00 +8°C° 0.1 mm 2 mps 750 mmHg 60%
    04:00 +8°C° 0 mm 2 mps 751 mmHg 61%
    05:00 +8°C° 0 mm 2 mps 751 mmHg 62%
    06:00 +8°C° 0 mm 2 mps 751 mmHg 63%
    07:00 +9°C° 0 mm 1 mps 751 mmHg 60%
    08:00 +9°C° 0 mm 1 mps 752 mmHg 57%
    09:00 +9°C° 0 mm 1 mps 752 mmHg 54%
    10:00 +10°C° 0 mm 1 mps 752 mmHg 49%
    11:00 +11°C° 0 mm 1 mps 751 mmHg 45%
    12:00 +10°C° 0 mm 2 mps 751 mmHg 41%
    13:00 +10°C° 0 mm 2 mps 751 mmHg 40%
    14:00 +10°C° 0 mm 2 mps 751 mmHg 39%
    15:00 +12°C° 0 mm 2 mps 751 mmHg 38%
    16:00 +10°C° 0 mm 3 mps 751 mmHg 39%
    17:00 +9°C° 0 mm 3 mps 752 mmHg 41%
    18:00 +9°C° 0 mm 3 mps 752 mmHg 42%
    19:00 +7°C° 0 mm 4 mps 753 mmHg 42%
    20:00 +7°C° 0 mm 5 mps 753 mmHg 43%
    21:00 +5°C° 0 mm 6 mps 754 mmHg 44%
    22:00 +5°C° 0.1 mm 6 mps 754 mmHg 46%
    23:00 +5°C° 0.1 mm 6 mps 754 mmHg 49%

    Tomorrow, 24 November, Friday

    Time Temperature Precipitation Wind Pressure Humidity
    00:00 +4°C° 0.1 mm 6 mps 755 mmHg 51%
    01:00 +4°C° 0 mm 6 mps 755 mmHg 51%
    02:00 +4°C° 0 mm 6 mps 755 mmHg 50%
    03:00 +5°C° 0 mm 5 mps 755 mmHg 50%
    04:00 +3°C° 0 mm 5 mps 755 mmHg 49%
    05:00 +3°C° 0 mm 6 mps 756 mmHg 48%
    06:00 +3°C° 0 mm 6 mps 756 mmHg 47%
    07:00 +3°C° 0.1 mm 6 mps 756 mmHg 45%
    08:00 +4°C° 0.1 mm 6 mps 756 mmHg 44%
    09:00 +4°C° 0.1 mm 6 mps 757 mmHg 43%
    10:00 +4°C° 0 mm 6 mps 756 mmHg 41%
    11:00 +5°C° 0 mm 6 mps 756 mmHg 39%
    12:00 +5°C° 0 mm 6 mps 756 mmHg 38%
    13:00 +7°C° 0 mm 6 mps 756 mmHg 37%
    14:00 +7°C° 0 mm 5 mps 756 mmHg 36%
    15:00 +7°C° 0 mm 5 mps 756 mmHg 35%
    16:00 +6°C° 0 mm 5 mps 757 mmHg 36%
    17:00 +5°C° 0 mm 4 mps 757 mmHg 37%
    18:00 +5°C° 0 mm 3 mps 758 mmHg 39%
    19:00 +4°C° 0 mm 4 mps 758 mmHg 38%
    20:00 +4°C° 0 mm 4 mps 758 mmHg 38%
    21:00 +4°C° 0 mm 4 mps 758 mmHg 38%
    22:00 +3°C° 0 mm 4 mps 758 mmHg 38%
    23:00 +3°C° 0 mm 4 mps 758 mmHg 38%

    Day after tomorrow, 25 November, Saturday

    Time Temperature Precipitation Wind Pressure Humidity
    00:00 +3°C° 0 mm 4 mps 759 mmHg 38%
    01:00 +3°C° 0 mm 4 mps 759 mmHg 39%
    02:00 +1°C° 0 mm 4 mps 759 mmHg 39%
    03:00 +1°C° 0 mm 4 mps 759 mmHg 40%
    04:00 +1°C° 0 mm 4 mps 759 mmHg 40%
    05:00 +1°C° 0 mm 5 mps 759 mmHg 41%
    06:00 +1°C° 0 mm 5 mps 760 mmHg 41%
    07:00 +2°C° 0 mm 5 mps 760 mmHg 40%
    08:00 +3°C° 0 mm 5 mps 761 mmHg 39%
    09:00 +4°C° 0 mm 6 mps 761 mmHg 38%
    10:00 +5°C° 0 mm 6 mps 761 mmHg 36%
    11:00 +7°C° 0 mm 6 mps 761 mmHg 35%
    12:00 +8°C° 0 mm 6 mps 761 mmHg 34%
    13:00 +8°C° 0 mm 6 mps 762 mmHg 35%
    14:00 +8°C° 0 mm 6 mps 762 mmHg 36%
    15:00 +8°C° 0 mm 5 mps 762 mmHg 36%
    16:00 +7°C° 0 mm 4 mps 762 mmHg 39%
    17:00 +7°C° 0 mm 3 mps 763 mmHg 41%
    18:00 +4°C° 0 mm 3 mps 764 mmHg 44%
    19:00 +5°C° 0 mm 2 mps 764 mmHg 43%
    20:00 +5°C° 0 mm 2 mps 764 mmHg 43%
    21:00 +4°C° 0 mm 2 mps 765 mmHg 43%
    22:00 +4°C° 0 mm 2 mps 765 mmHg 42%
    23:00 +4°C° 0 mm 2 mps 765 mmHg 42%

    26 November, Sunday

    Time Temperature Precipitation Wind Pressure Humidity
    00:00 +4°C° 0 mm 2 mps 765 mmHg 41%
    01:00 +3°C° 0 mm 2 mps 765 mmHg 41%
    02:00 +4°C° 0 mm 1 mps 765 mmHg 40%
    03:00 +4°C° 0 mm 1 mps 765 mmHg 39%
    04:00 +4°C° 0 mm 1 mps 765 mmHg 39%
    05:00 +3°C° 0 mm 1 mps 765 mmHg 39%
    06:00 +3°C° 0 mm 1 mps 765 mmHg 39%
    07:00 +4°C° 0 mm 1 mps 765 mmHg 37%
    08:00 +5°C° 0 mm 1 mps 765 mmHg 35%
    09:00 +6°C° 0 mm 1 mps 765 mmHg 33%
    10:00 +7°C° 0 mm 1 mps 765 mmHg 34%
    11:00 +7°C° 0 mm 1 mps 764 mmHg 35%
    12:00 +8°C° 0 mm 1 mps 763 mmHg 36%
    13:00 +8°C° 0 mm 1 mps 763 mmHg 37%
    14:00 +8°C° 0 mm 1 mps 763 mmHg 39%
    15:00 +8°C° 0 mm 1 mps 762 mmHg 40%
    16:00 +7°C° 0 mm 1 mps 763 mmHg 43%
    17:00 +7°C° 0 mm 1 mps 763 mmHg 46%
    18:00 +5°C° 0 mm 0 mps 763 mmHg 49%
    19:00 +5°C° 0 mm 1 mps 763 mmHg 50%
    20:00 +5°C° 0 mm 1 mps 764 mmHg 50%
    21:00 +5°C° 0 mm 1 mps 764 mmHg 50%
    22:00 +5°C° 0 mm 1 mps 763 mmHg 50%
    23:00 +4°C° 0 mm 1 mps 763 mmHg 50%

    27 November, Monday

    Time Temperature Precipitation Wind Pressure Humidity
    00:00 +4°C° 0 mm 1 mps 763 mmHg 50%
    01:00 +4°C° 0 mm 1 mps 762 mmHg 50%
    02:00 +4°C° 0 mm 1 mps 762 mmHg 49%
    03:00 +3°C° 0 mm 2 mps 762 mmHg 48%
    04:00 +3°C° 0 mm 2 mps 761 mmHg 47%
    05:00 +2°C° 0 mm 2 mps 761 mmHg 46%
    06:00 +2°C° 0 mm 2 mps 761 mmHg 44%
    07:00 +4°C° 0 mm 1 mps 761 mmHg 41%
    08:00 +6°C° 0 mm 1 mps 761 mmHg 38%
    09:00 +7°C° 0 mm 1 mps 760 mmHg 35%
    10:00 +8°C° 0 mm 1 mps 760 mmHg 34%
    11:00 +9°C° 0 mm 1 mps 759 mmHg 32%
    12:00 +10°C° 0 mm 1 mps 758 mmHg 31%
    13:00 +10°C° 0 mm 1 mps 758 mmHg 31%
    14:00 +11°C° 0 mm 1 mps 758 mmHg 31%
    15:00 +11°C° 0 mm 1 mps 757 mmHg 32%
    16:00 +10°C° 0 mm 1 mps 757 mmHg 35%
    17:00 +8°C° 0 mm 1 mps 758 mmHg 38%
    18:00 +7°C° 0 mm 1 mps 758 mmHg 41%
    19:00 +7°C° 0 mm 1 mps 758 mmHg 41%
    20:00 +7°C° 0 mm 1 mps 758 mmHg 42%
    21:00 +6°C° 0 mm 1 mps 758 mmHg 42%
    22:00 +6°C° 0 mm 1 mps 758 mmHg 43%
    23:00 +6°C° 0 mm 1 mps 758 mmHg 43%

    28 November, Tuesday

    Time Temperature Precipitation Wind Pressure Humidity
    00:00 +5°C° 0 mm 1 mps 757 mmHg 44%
    01:00 +5°C° 0 mm 1 mps 757 mmHg 44%
    02:00 +5°C° 0 mm 1 mps 757 mmHg 43%
    03:00 +5°C° 0 mm 1 mps 757 mmHg 43%
    04:00 +5°C° 0 mm 1 mps 757 mmHg 43%
    05:00 +5°C° 0 mm 1 mps 757 mmHg 43%
    06:00 +4°C° 0 mm 1 mps 757 mmHg 43%
    07:00 +6°C° 0 mm 1 mps 757 mmHg 40%
    08:00 +7°C° 0 mm 1 mps 757 mmHg 38%
    09:00 +8°C° 0 mm 1 mps 756 mmHg 35%
    10:00 +9°C° 0 mm 1 mps 756 mmHg 33%
    11:00 +10°C° 0 mm 1 mps 755 mmHg 31%
    12:00 +12°C° 0 mm 2 mps 754 mmHg 29%
    13:00 +12°C° 0 mm 2 mps 754 mmHg 29%
    14:00 +12°C° 0 mm 1 mps 754 mmHg 29%
    15:00 +12°C° 0 mm 1 mps 754 mmHg 29%
    16:00 +11°C° 0 mm 1 mps 754 mmHg 32%
    17:00 +10°C° 0 mm 1 mps 755 mmHg 34%
    18:00 +9°C° 0 mm 1 mps 755 mmHg 37%
    19:00 +9°C° 0 mm 1 mps 755 mmHg 37%
    20:00 +8°C° 0 mm 1 mps 755 mmHg 38%
    21:00 +8°C° 0 mm 1 mps 756 mmHg 38%
    22:00 +8°C° 0 mm 1 mps 756 mmHg 38%
    23:00 +8°C° 0 mm 1 mps 756 mmHg 38%
    Show more